Time,TemperatureF,DewpointF,PressureIn,WindDirection,WindDirectionDegrees,WindSpeedMPH,WindSpeedGustMPH,Humidity,HourlyPrecipIn,Conditions,Clouds,dailyrainin,SolarRadiationWatts/m^2,SoftwareType,DateUTC
2013-04-23 00:00:00,68.0,66.2,30.10,West,269,1.0,1.0,94,0.00,,,0.00,0,Wunderground v.1.15,2013-04-23 10:00:00,
2013-04-23 00:09:00,67.7,65.9,30.10,West,269,0.0,1.0,94,0.00,,,0.00,0,Wunderground v.1.15,2013-04-23 10:09:00,
2013-04-23 00:14:00,67.7,66.2,30.11,West,269,0.0,3.0,95,0.00,,,0.00,0,Wunderground v.1.15,2013-04-23 10:14:00,
2013-04-23 00:20:00,67.6,66.1,30.11,West,269,1.0,2.0,95,0.00,,,0.00,0,Wunderground v.1.15,2013-04-23 10:20:00,
2013-04-23 00:29:00,67.2,65.4,30.10,West,269,1.0,3.0,94,0.00,,,0.00,0,Wunderground v.1.15,2013-04-23 10:29:00,
2013-04-23 00:34:00,67.2,65.7,30.10,West,271,2.0,3.0,95,0.00,,,0.00,0,Wunderground v.1.15,2013-04-23 10:34:00,
2013-04-23 00:39:00,67.1,65.6,30.10,West,271,1.0,1.0,95,0.00,,,0.00,0,Wunderground v.1.15,2013-04-23 10:39:00,
2013-04-23 00:45:00,66.8,65.3,30.10,West,271,0.0,1.0,95,0.00,,,0.00,0,Wunderground v.1.15,2013-04-23 10:45:00,
2013-04-23 00:50:00,66.7,65.2,30.09,West,271,0.0,0.0,95,0.00,,,0.00,0,Wunderground v.1.15,2013-04-23 10:50:00,
2013-04-23 00:55:00,66.7,65.2,30.09,West,271,0.0,0.0,95,0.00,,,0.00,0,Wunderground v.1.15,2013-04-23 10:55:00,
2013-04-23 01:00:00,66.7,65.2,30.09,West,271,0.0,0.0,95,0.00,,,0.00,0,Wunderground v.1.15,2013-04-23 11:00:00,
2013-04-23 01:10:00,66.4,64.9,30.09,West,271,2.0,2.0,95,0.00,,,0.00,0,Wunderground v.1.15,2013-04-23 11:10:00,
2013-04-23 01:15:00,66.4,64.9,30.09,West,271,1.0,2.0,95,0.00,,,0.00,0,Wunderground v.1.15,2013-04-23 11:15:00,
2013-04-23 01:20:00,66.4,64.9,30.09,West,271,1.0,1.0,95,0.00,,,0.00,0,Wunderground v.1.15,2013-04-23 11:20:00,
2013-04-23 01:29:00,66.2,64.7,30.09,West,271,0.0,0.0,95,0.00,,,0.00,0,Wunderground v.1.15,2013-04-23 11:29:00,
2013-04-23 01:34:00,66.0,64.5,30.09,West,271,0.0,0.0,95,0.00,,,0.00,0,Wunderground v.1.15,2013-04-23 11:34:00,
2013-04-23 01:39:00,66.0,64.5,30.09,West,271,0.0,0.0,95,0.00,,,0.00,0,Wunderground v.1.15,2013-04-23 11:39:00,
2013-04-23 01:44:00,66.0,64.5,30.08,West,271,0.0,0.0,95,0.00,,,0.00,0,Wunderground v.1.15,2013-04-23 11:44:00,
2013-04-23 01:50:00,66.0,64.5,30.09,West,271,0.0,0.0,95,0.00,,,0.00,0,Wunderground v.1.15,2013-04-23 11:50:00,
2013-04-23 01:55:00,66.3,64.8,30.08,West,271,0.0,1.0,95,0.00,,,0.00,0,Wunderground v.1.15,2013-04-23 11:55:00,
2013-04-23 02:00:00,66.6,64.8,30.08,West,271,0.0,2.0,94,0.00,,,0.00,0,Wunderground v.1.15,2013-04-23 12:00:00,
2013-04-23 02:09:00,66.8,64.7,30.08,West,271,1.0,1.0,93,0.00,,,0.00,0,Wunderground v.1.15,2013-04-23 12:09:00,
2013-04-23 02:15:00,66.5,64.4,30.08,West,271,0.0,1.0,93,0.00,,,0.00,0,Wunderground v.1.15,2013-04-23 12:15:00,
2013-04-23 02:20:00,66.1,64.3,30.08,West,271,0.0,3.0,94,0.00,,,0.00,0,Wunderground v.1.15,2013-04-23 12:20:00,
2013-04-23 02:25:00,65.9,64.4,30.07,West,271,1.0,3.0,95,0.00,,,0.00,0,Wunderground v.1.15,2013-04-23 12:25:00,
2013-04-23 02:34:00,65.9,64.1,30.07,West,271,1.0,2.0,94,0.00,,,0.00,0,Wunderground v.1.15,2013-04-23 12:34:00,
2013-04-23 02:39:00,66.0,64.2,30.07,West,271,1.0,2.0,94,0.00,,,0.00,0,Wunderground v.1.15,2013-04-23 12:39:00,
2013-04-23 02:45:00,65.9,64.1,30.07,West,271,0.0,2.0,94,0.00,,,0.00,0,Wunderground v.1.15,2013-04-23 12:45:00,
2013-04-23 02:50:00,65.9,64.1,30.07,West,271,1.0,1.0,94,0.00,,,0.00,0,Wunderground v.1.15,2013-04-23 12:50:00,
2013-04-23 03:00:00,65.9,64.1,30.07,West,271,0.0,0.0,94,0.00,,,0.00,0,Wunderground v.1.15,2013-04-23 13:00:00,
2013-04-23 03:10:00,65.7,64.2,30.06,West,271,0.0,0.0,95,0.00,,,0.00,0,Wunderground v.1.15,2013-04-23 13:10:00,
2013-04-23 03:15:00,65.8,64.3,30.06,West,271,1.0,1.0,95,0.00,,,0.00,0,Wunderground v.1.15,2013-04-23 13:15:00,
2013-04-23 03:24:00,65.9,64.1,30.06,West,271,2.0,2.0,94,0.00,,,0.00,0,Wunderground v.1.15,2013-04-23 13:24:00,
2013-04-23 03:34:00,65.5,64.0,30.07,West,271,1.0,1.0,95,0.00,,,0.00,0,Wunderground v.1.15,2013-04-23 13:34:00,
2013-04-23 03:39:00,65.5,64.0,30.07,West,271,1.0,1.0,95,0.00,,,0.00,0,Wunderground v.1.15,2013-04-23 13:39:00,
2013-04-23 03:44:00,65.6,64.1,30.07,West,271,1.0,4.0,95,0.00,,,0.00,0,Wunderground v.1.15,2013-04-23 13:44:00,
2013-04-23 03:49:00,65.7,64.2,30.07,West,271,1.0,1.0,95,0.00,,,0.00,0,Wunderground v.1.15,2013-04-23 13:49:00,
2013-04-23 03:54:00,65.8,64.3,30.07,West,271,1.0,4.0,95,0.00,,,0.00,0,Wunderground v.1.15,2013-04-23 13:54:00,
2013-04-23 04:00:00,65.8,64.3,30.07,West,275,2.0,3.0,95,0.00,,,0.00,0,Wunderground v.1.15,2013-04-23 14:00:00,
2013-04-23 04:09:00,66.1,64.6,30.07,West,275,2.0,2.0,95,0.00,,,0.00,0,Wunderground v.1.15,2013-04-23 14:09:00,
2013-04-23 04:14:00,66.3,64.5,30.07,West,275,2.0,2.0,94,0.00,,,0.00,0,Wunderground v.1.15,2013-04-23 14:14:00,
2013-04-23 04:20:00,66.4,64.6,30.07,WNW,294,1.0,5.0,94,0.00,,,0.00,0,Wunderground v.1.15,2013-04-23 14:20:00,
2013-04-23 04:25:00,66.6,64.5,30.06,WNW,299,2.0,5.0,93,0.00,,,0.00,0,Wunderground v.1.15,2013-04-23 14:25:00,
2013-04-23 04:30:00,66.8,64.7,30.07,WNW,299,1.0,1.0,93,0.00,,,0.00,0,Wunderground v.1.15,2013-04-23 14:30:00,
2013-04-23 04:35:00,66.8,64.7,30.07,WNW,299,1.0,1.0,93,0.00,,,0.00,0,Wunderground v.1.15,2013-04-23 14:35:00,
2013-04-23 04:44:00,66.8,65.0,30.06,WNW,299,0.0,1.0,94,0.00,,,0.00,0,Wunderground v.1.15,2013-04-23 14:44:00,
2013-04-23 04:49:00,66.9,65.1,30.06,WNW,299,0.0,0.0,94,0.00,,,0.00,0,Wunderground v.1.15,2013-04-23 14:49:00,
2013-04-23 04:54:00,66.9,65.4,30.07,WNW,299,0.0,0.0,95,0.00,,,0.00,0,Wunderground v.1.15,2013-04-23 14:54:00,
2013-04-23 05:00:00,66.9,65.1,30.07,WNW,299,1.0,3.0,94,0.00,,,0.00,0,Wunderground v.1.15,2013-04-23 15:00:00,
2013-04-23 05:09:00,67.2,64.8,30.08,NW,306,2.0,3.0,92,0.00,,,0.00,0,Wunderground v.1.15,2013-04-23 15:09:00,
2013-04-23 05:14:00,67.4,65.0,30.07,NW,306,1.0,3.0,92,0.00,,,0.00,0,Wunderground v.1.15,2013-04-23 15:14:00,
2013-04-23 05:19:00,67.3,64.9,30.08,NW,306,0.0,0.0,92,0.00,,,0.00,0,Wunderground v.1.15,2013-04-23 15:19:00,
2013-04-23 05:24:00,66.9,64.8,30.08,NW,306,0.0,0.0,93,0.00,,,0.00,0,Wunderground v.1.15,2013-04-23 15:24:00,
2013-04-23 05:29:00,66.6,64.5,30.08,NW,306,0.0,0.0,93,0.00,,,0.00,0,Wunderground v.1.15,2013-04-23 15:29:00,
2013-04-23 05:35:00,66.5,64.4,30.08,NW,306,0.0,0.0,93,0.00,,,0.00,0,Wunderground v.1.15,2013-04-23 15:35:00,
2013-04-23 05:40:00,66.3,64.5,30.08,NW,306,0.0,0.0,94,0.00,,,0.00,0,Wunderground v.1.15,2013-04-23 15:40:00,
2013-04-23 05:45:00,66.1,64.3,30.08,NW,306,0.0,0.0,94,0.00,,,0.00,0,Wunderground v.1.15,2013-04-23 15:45:00,
2013-04-23 05:54:00,65.6,64.1,30.08,NW,306,0.0,0.0,95,0.00,,,0.00,0,Wunderground v.1.15,2013-04-23 15:54:00,
2013-04-23 06:00:00,65.3,63.8,30.08,NW,306,1.0,3.0,95,0.00,,,0.00,0,Wunderground v.1.15,2013-04-23 16:00:00,
2013-04-23 06:09:00,65.0,63.8,30.09,NW,306,2.0,2.0,96,0.00,,,0.00,9,Wunderground v.1.15,2013-04-23 16:09:00,
2013-04-23 06:15:00,65.0,64.1,30.09,NW,306,1.0,2.0,97,0.00,,,0.00,12,Wunderground v.1.15,2013-04-23 16:15:00,
2013-04-23 06:20:00,65.1,64.2,30.09,NW,306,0.0,3.0,97,0.00,,,0.00,23,Wunderground v.1.15,2013-04-23 16:20:00,
2013-04-23 06:25:00,65.1,64.2,30.09,NW,306,1.0,3.0,97,0.00,,,0.00,33,Wunderground v.1.15,2013-04-23 16:25:00,
2013-04-23 06:34:00,65.7,64.8,30.09,NW,306,2.0,2.0,97,0.00,,,0.00,53,Wunderground v.1.15,2013-04-23 16:34:00,
2013-04-23 06:39:00,66.0,65.1,30.09,NW,306,2.0,2.0,97,0.00,,,0.00,54,Wunderground v.1.15,2013-04-23 16:39:00,
2013-04-23 06:44:00,66.4,65.5,30.09,NW,306,1.0,2.0,97,0.00,,,0.00,65,Wunderground v.1.15,2013-04-23 16:44:00,
2013-04-23 06:49:00,66.7,65.8,30.10,NW,306,0.0,0.0,97,0.00,,,0.00,102,Wunderground v.1.15,2013-04-23 16:49:00,
2013-04-23 06:55:00,67.2,66.3,30.10,NW,306,0.0,0.0,97,0.00,,,0.00,153,Wunderground v.1.15,2013-04-23 16:55:00,
2013-04-23 07:00:00,67.9,67.0,30.10,NW,306,0.0,0.0,97,0.00,,,0.00,70,Wunderground v.1.15,2013-04-23 17:00:00,
2013-04-23 07:09:00,69.0,67.8,30.10,NW,306,0.0,0.0,96,0.00,,,0.00,244,Wunderground v.1.15,2013-04-23 17:09:00,
2013-04-23 07:14:00,69.7,68.2,30.10,NW,306,0.0,0.0,95,0.00,,,0.00,237,Wunderground v.1.15,2013-04-23 17:14:00,
2013-04-23 07:19:00,70.4,68.6,30.11,NW,306,0.0,0.0,94,0.00,,,0.00,241,Wunderground v.1.15,2013-04-23 17:19:00,
2013-04-23 07:25:00,71.1,69.0,30.11,NW,306,0.0,0.0,93,0.00,,,0.00,248,Wunderground v.1.15,2013-04-23 17:25:00,
2013-04-23 07:30:00,71.8,69.3,30.11,NW,306,0.0,0.0,92,0.00,,,0.00,271,Wunderground v.1.15,2013-04-23 17:30:00,
2013-04-23 07:35:00,72.5,69.4,30.11,NW,306,0.0,0.0,90,0.00,,,0.00,283,Wunderground v.1.15,2013-04-23 17:35:00,
2013-04-23 07:44:00,73.6,69.8,30.11,NW,306,0.0,0.0,88,0.00,,,0.00,325,Wunderground v.1.15,2013-04-23 17:44:00,
2013-04-23 07:49:00,73.8,69.7,30.11,NW,306,0.0,0.0,87,0.00,,,0.00,341,Wunderground v.1.15,2013-04-23 17:49:00,
2013-04-23 07:54:00,73.9,69.8,30.11,NW,306,0.0,0.0,87,0.00,,,0.00,366,Wunderground v.1.15,2013-04-23 17:54:00,
2013-04-23 08:00:00,74.1,70.3,30.11,NW,306,0.0,0.0,88,0.00,,,0.00,385,Wunderground v.1.15,2013-04-23 18:00:00,
2013-04-23 08:09:00,74.1,69.6,30.11,NW,306,1.0,1.0,86,0.00,,,0.00,425,Wunderground v.1.15,2013-04-23 18:09:00,
2013-04-23 08:14:00,74.4,69.9,30.11,NW,306,1.0,1.0,86,0.00,,,0.00,448,Wunderground v.1.15,2013-04-23 18:14:00,
2013-04-23 08:19:00,74.8,70.3,30.11,NW,306,0.0,0.0,86,0.00,,,0.00,469,Wunderground v.1.15,2013-04-23 18:19:00,
2013-04-23 08:24:00,75.3,70.1,30.11,NW,305,0.0,4.0,84,0.00,,,0.00,489,Wunderground v.1.15,2013-04-23 18:24:00,
2013-04-23 08:35:00,75.2,70.0,30.11,East,101,3.0,5.0,84,0.00,,,0.00,533,Wunderground v.1.15,2013-04-23 18:35:00,
2013-04-23 08:40:00,75.4,70.2,30.11,East,101,1.0,3.0,84,0.00,,,0.00,545,Wunderground v.1.15,2013-04-23 18:40:00,
2013-04-23 08:49:00,75.9,70.4,30.11,ESE,106,1.0,1.0,83,0.00,,,0.00,592,Wunderground v.1.15,2013-04-23 18:49:00,
2013-04-23 08:54:00,76.1,70.2,30.11,ESE,106,1.0,3.0,82,0.00,,,0.00,636,Wunderground v.1.15,2013-04-23 18:54:00,
2013-04-23 09:00:00,76.0,70.5,30.11,ESE,106,2.0,2.0,83,0.00,,,0.00,118,Wunderground v.1.15,2013-04-23 19:00:00,
2013-04-23 09:09:00,76.1,71.3,30.11,ESE,108,0.0,4.0,85,0.00,,,0.00,617,Wunderground v.1.15,2013-04-23 19:09:00,
2013-04-23 09:14:00,76.2,71.4,30.11,South,175,3.0,4.0,85,0.00,,,0.00,220,Wunderground v.1.15,2013-04-23 19:14:00,
2013-04-23 09:19:00,76.0,71.5,30.11,SSE,163,4.0,4.0,86,0.00,,,0.00,749,Wunderground v.1.15,2013-04-23 19:19:00,
2013-04-23 09:24:00,76.2,72.0,30.11,SE,145,4.0,4.0,87,0.00,,,0.00,872,Wunderground v.1.15,2013-04-23 19:24:00,
2013-04-23 09:29:00,76.4,71.6,30.12,South,184,5.0,6.0,85,0.00,,,0.00,944,Wunderground v.1.15,2013-04-23 19:29:00,
2013-04-23 09:35:00,76.5,72.0,30.12,South,171,5.0,6.0,86,0.00,,,0.00,939,Wunderground v.1.15,2013-04-23 19:35:00,
2013-04-23 09:40:00,76.7,72.2,30.12,SSE,150,5.0,9.0,86,0.00,,,0.00,888,Wunderground v.1.15,2013-04-23 19:40:00,
2013-04-23 09:50:00,76.3,72.1,30.11,SE,130,5.0,9.0,87,0.00,,,0.00,316,Wunderground v.1.15,2013-04-23 19:50:00,
2013-04-23 10:00:00,75.8,71.3,30.11,ENE,74,5.0,5.0,86,0.00,,,0.00,392,Wunderground v.1.15,2013-04-23 20:00:00,
2013-04-23 10:09:00,75.6,71.5,30.11,SE,146,5.0,5.0,87,0.00,,,0.00,346,Wunderground v.1.15,2013-04-23 20:09:00,
2013-04-23 10:14:00,75.3,71.2,30.11,SSE,147,6.0,6.0,87,0.00,,,0.00,313,Wunderground v.1.15,2013-04-23 20:14:00,
2013-04-23 10:19:00,75.2,71.4,30.11,SSE,157,6.0,6.0,88,0.00,,,0.00,295,Wunderground v.1.15,2013-04-23 20:19:00,
2013-04-23 10:24:00,75.0,71.2,30.11,ESE,111,6.0,6.0,88,0.00,,,0.00,295,Wunderground v.1.15,2013-04-23 20:24:00,
2013-04-23 10:29:00,75.0,70.9,30.11,SSE,153,6.0,6.0,87,0.00,,,0.00,357,Wunderground v.1.15,2013-04-23 20:29:00,
2013-04-23 10:35:00,75.2,71.4,30.11,SSE,151,6.0,10.0,88,0.00,,,0.00,1078,Wunderground v.1.15,2013-04-23 20:35:00,
2013-04-23 10:40:00,75.4,71.3,30.11,South,177,5.0,5.0,87,0.00,,,0.00,513,Wunderground v.1.15,2013-04-23 20:40:00,
2013-04-23 10:45:00,75.5,71.4,30.11,SSE,158,5.0,5.0,87,0.00,,,0.00,371,Wunderground v.1.15,2013-04-23 20:45:00,
2013-04-23 10:50:00,75.4,70.9,30.10,SW,223,4.0,5.0,86,0.00,,,0.00,362,Wunderground v.1.15,2013-04-23 20:50:00,
2013-04-23 10:55:00,75.4,70.9,30.10,SSE,157,4.0,5.0,86,0.00,,,0.00,564,Wunderground v.1.15,2013-04-23 20:55:00,
2013-04-23 11:00:00,75.3,71.2,30.10,SSE,154,5.0,5.0,87,0.00,,,0.00,359,Wunderground v.1.15,2013-04-23 21:00:00,
2013-04-23 11:09:00,75.2,71.4,30.10,SSE,150,4.0,6.0,88,0.00,,,0.00,315,Wunderground v.1.15,2013-04-23 21:09:00,
2013-04-23 11:14:00,75.0,71.2,30.09,South,179,4.0,6.0,88,0.00,,,0.00,258,Wunderground v.1.15,2013-04-23 21:14:00,
2013-04-23 11:20:00,74.8,71.0,30.09,SSE,162,4.0,5.0,88,0.00,,,0.00,239,Wunderground v.1.15,2013-04-23 21:20:00,
2013-04-23 11:25:00,74.9,71.4,30.09,SSE,150,3.0,5.0,89,0.00,,,0.00,225,Wunderground v.1.15,2013-04-23 21:25:00,
2013-04-23 11:30:00,74.8,71.0,30.09,SSE,167,3.0,3.0,88,0.00,,,0.00,186,Wunderground v.1.15,2013-04-23 21:30:00,
2013-04-23 11:39:00,74.7,71.2,30.09,SSE,161,2.0,2.0,89,0.00,,,0.00,181,Wunderground v.1.15,2013-04-23 21:39:00,
2013-04-23 11:44:00,74.8,71.3,30.09,SSE,153,2.0,2.0,89,0.00,,,0.00,156,Wunderground v.1.15,2013-04-23 21:44:00,
2013-04-23 11:49:00,74.7,71.2,30.09,SSE,159,3.0,7.0,89,0.00,,,0.00,134,Wunderground v.1.15,2013-04-23 21:49:00,
2013-04-23 11:54:00,74.5,71.0,30.09,South,190,3.0,7.0,89,0.00,,,0.00,137,Wunderground v.1.15,2013-04-23 21:54:00,
2013-04-23 12:00:00,74.4,70.9,30.09,SSE,151,3.0,3.0,89,0.00,,,0.00,135,Wunderground v.1.15,2013-04-23 22:00:00,
2013-04-23 12:09:00,74.3,70.8,30.08,SSE,160,2.0,5.0,89,0.00,,,0.00,151,Wunderground v.1.15,2013-04-23 22:09:00,
2013-04-23 12:15:00,74.3,70.8,30.08,SSE,151,3.0,5.0,89,0.00,,,0.00,167,Wunderground v.1.15,2013-04-23 22:15:00,
2013-04-23 12:24:00,74.1,70.6,30.08,ESE,109,4.0,5.0,89,0.00,,,0.00,142,Wunderground v.1.15,2013-04-23 22:24:00,
2013-04-23 12:29:00,74.0,70.6,30.08,SSE,156,4.0,4.0,89,0.00,,,0.00,163,Wunderground v.1.15,2013-04-23 22:29:00,
2013-04-23 12:35:00,74.0,70.6,30.08,SSE,148,3.0,4.0,89,0.00,,,0.00,176,Wunderground v.1.15,2013-04-23 22:35:00,
2013-04-23 12:40:00,74.0,70.9,30.08,SSE,148,2.0,5.0,90,0.00,,,0.00,158,Wunderground v.1.15,2013-04-23 22:40:00,
2013-04-23 12:45:00,74.0,70.9,30.08,SSE,148,2.0,5.0,90,0.00,,,0.00,148,Wunderground v.1.15,2013-04-23 22:45:00,
2013-04-23 12:54:00,73.9,70.8,30.07,SSE,150,2.0,2.0,90,0.00,,,0.00,116,Wunderground v.1.15,2013-04-23 22:54:00,
2013-04-23 13:00:00,73.7,70.9,30.07,SSE,150,2.0,2.0,91,0.00,,,0.00,105,Wunderground v.1.15,2013-04-23 23:00:00,
2013-04-23 13:09:00,73.4,70.9,30.07,SSE,150,1.0,3.0,92,0.00,,,0.00,90,Wunderground v.1.15,2013-04-23 23:09:00,
2013-04-23 13:14:00,73.2,71.1,30.07,SSE,150,1.0,3.0,93,0.00,,,0.01,93,Wunderground v.1.15,2013-04-23 23:14:00,
2013-04-23 13:19:00,73.1,71.3,30.07,SSE,150,1.0,2.0,94,0.19,,,0.02,102,Wunderground v.1.15,2013-04-23 23:19:00,
2013-04-23 13:24:00,72.7,70.6,30.07,SSE,150,0.0,2.0,93,0.08,,,0.02,86,Wunderground v.1.15,2013-04-23 23:24:00,
2013-04-23 13:29:00,72.5,70.7,30.07,SSE,150,0.0,0.0,94,0.19,,,0.03,74,Wunderground v.1.15,2013-04-23 23:29:00,
2013-04-23 13:34:00,72.5,71.0,30.07,SSE,150,0.0,0.0,95,0.21,,,0.05,74,Wunderground v.1.15,2013-04-23 23:34:00,
2013-04-23 13:40:00,72.2,70.7,30.07,SSE,150,1.0,2.0,95,0.09,,,0.05,84,Wunderground v.1.15,2013-04-23 23:40:00,
2013-04-23 13:45:00,71.9,70.7,30.07,SSE,150,2.0,2.0,96,0.37,,,0.06,105,Wunderground v.1.15,2013-04-23 23:45:00,
2013-04-23 13:54:00,71.4,70.5,30.06,SSE,150,1.0,2.0,97,0.08,,,0.07,105,Wunderground v.1.15,2013-04-23 23:54:00,
2013-04-23 14:00:00,71.4,70.8,30.06,SSE,150,1.0,1.0,98,0.06,,,0.07,197,Wunderground v.1.15,2013-04-24 00:00:00,
2013-04-23 14:09:00,71.1,70.5,30.06,SSE,150,1.0,1.0,98,0.31,,,0.10,105,Wunderground v.1.15,2013-04-24 00:09:00,
2013-04-23 14:14:00,70.9,70.3,30.06,SSE,150,0.0,1.0,98,0.18,,,0.12,91,Wunderground v.1.15,2013-04-24 00:14:00,
2013-04-23 14:20:00,70.9,70.3,30.06,SSE,150,0.0,0.0,98,0.09,,,0.12,98,Wunderground v.1.15,2013-04-24 00:20:00,
2013-04-23 14:25:00,71.1,70.8,30.06,SSE,150,1.0,1.0,99,0.09,,,0.13,149,Wunderground v.1.15,2013-04-24 00:25:00,
2013-04-23 14:30:00,71.1,70.8,30.06,SSE,150,1.0,1.0,99,0.12,,,0.13,132,Wunderground v.1.15,2013-04-24 00:30:00,
2013-04-23 14:35:00,71.1,70.8,30.06,SSE,150,1.0,2.0,99,0.08,,,0.14,151,Wunderground v.1.15,2013-04-24 00:35:00,
2013-04-23 14:40:00,71.0,70.7,30.05,SSE,150,1.0,1.0,99,0.08,,,0.14,134,Wunderground v.1.15,2013-04-24 00:40:00,
2013-04-23 14:45:00,70.9,70.6,30.06,SSE,150,1.0,1.0,99,0.05,,,0.14,102,Wunderground v.1.15,2013-04-24 00:45:00,
2013-04-23 14:55:00,70.9,70.6,30.06,SSE,150,0.0,0.0,99,0.00,,,0.15,88,Wunderground v.1.15,2013-04-24 00:55:00,
2013-04-23 15:00:00,70.7,70.4,30.05,SSE,150,1.0,1.0,99,0.08,,,0.16,100,Wunderground v.1.15,2013-04-24 01:00:00,
2013-04-23 15:09:00,70.6,70.3,30.05,SSE,150,0.0,2.0,99,0.05,,,0.16,79,Wunderground v.1.15,2013-04-24 01:09:00,
2013-04-23 15:14:00,70.5,70.2,30.05,SSE,150,1.0,2.0,99,0.04,,,0.16,81,Wunderground v.1.15,2013-04-24 01:14:00,
2013-04-23 15:20:00,70.5,70.2,30.05,SSE,150,1.0,1.0,99,0.00,,,0.17,77,Wunderground v.1.15,2013-04-24 01:20:00,
2013-04-23 15:25:00,70.5,70.2,30.05,SSE,150,0.0,1.0,99,0.08,,,0.17,74,Wunderground v.1.15,2013-04-24 01:25:00,
2013-04-23 15:30:00,70.5,70.5,30.05,SSE,150,0.0,0.0,100,0.08,,,0.17,83,Wunderground v.1.15,2013-04-24 01:30:00,
2013-04-23 15:39:00,70.4,70.4,30.05,SSE,150,2.0,3.0,100,0.04,,,0.17,97,Wunderground v.1.15,2013-04-24 01:39:00,
2013-04-23 15:44:00,70.3,70.3,30.05,SSE,150,2.0,3.0,100,0.00,,,0.17,86,Wunderground v.1.15,2013-04-24 01:44:00,
2013-04-23 15:49:00,70.2,70.2,30.06,SSE,150,1.0,1.0,100,0.00,,,0.18,105,Wunderground v.1.15,2013-04-24 01:49:00,
2013-04-23 15:55:00,70.1,70.1,30.05,SSE,150,0.0,3.0,100,0.00,,,0.18,100,Wunderground v.1.15,2013-04-24 01:55:00,
2013-04-23 16:00:00,70.1,70.1,30.05,SSE,150,1.0,1.0,100,0.04,,,0.19,116,Wunderground v.1.15,2013-04-24 02:00:00,
2013-04-23 16:09:00,69.8,69.8,30.06,NNE,15,2.0,2.0,100,0.04,,,0.19,123,Wunderground v.1.15,2013-04-24 02:09:00,
2013-04-23 16:15:00,69.8,69.8,30.06,NNE,15,2.0,2.0,100,0.04,,,0.19,98,Wunderground v.1.15,2013-04-24 02:15:00,
2013-04-23 16:20:00,69.7,69.7,30.06,NNE,15,1.0,2.0,100,0.00,,,0.19,91,Wunderground v.1.15,2013-04-24 02:20:00,
2013-04-23 16:29:00,69.4,69.4,30.06,NNE,15,2.0,2.0,100,0.00,,,0.20,91,Wunderground v.1.15,2013-04-24 02:29:00,
2013-04-23 16:34:00,69.5,69.5,30.06,NNE,15,2.0,3.0,100,0.00,,,0.20,97,Wunderground v.1.15,2013-04-24 02:34:00,
2013-04-23 16:39:00,69.3,69.3,30.05,NNE,15,2.0,2.0,100,0.00,,,0.20,107,Wunderground v.1.15,2013-04-24 02:39:00,
2013-04-23 16:44:00,69.2,69.2,30.05,NNE,15,3.0,3.0,100,0.00,,,0.20,107,Wunderground v.1.15,2013-04-24 02:44:00,
2013-04-23 16:49:00,69.3,69.3,30.05,NNE,14,3.0,3.0,100,0.00,,,0.20,113,Wunderground v.1.15,2013-04-24 02:49:00,
2013-04-23 16:55:00,69.2,69.2,30.05,North,10,3.0,3.0,100,0.00,,,0.20,105,Wunderground v.1.15,2013-04-24 02:55:00,
2013-04-23 17:00:00,69.3,69.3,30.05,North,355,4.0,4.0,100,0.00,,,0.20,107,Wunderground v.1.15,2013-04-24 03:00:00,
2013-04-23 17:12:00,69.1,69.1,30.06,North,351,4.0,4.0,100,0.00,,,0.20,105,Wunderground v.1.15,2013-04-24 03:12:00,
2013-04-23 17:19:00,69.1,69.1,30.06,North,351,3.0,3.0,100,0.00,,,0.20,79,Wunderground v.1.15,2013-04-24 03:19:00,
2013-04-23 17:24:00,69.2,69.2,30.06,North,350,1.0,3.0,100,0.00,,,0.20,67,Wunderground v.1.15,2013-04-24 03:24:00,
2013-04-23 17:29:00,69.2,69.2,30.06,North,350,1.0,1.0,100,0.00,,,0.20,76,Wunderground v.1.15,2013-04-24 03:29:00,
2013-04-23 17:34:00,69.3,69.3,30.07,North,350,1.0,1.0,100,0.00,,,0.20,62,Wunderground v.1.15,2013-04-24 03:34:00,
2013-04-23 17:41:00,69.4,69.4,30.07,North,350,1.0,2.0,100,0.00,,,0.20,65,Wunderground v.1.15,2013-04-24 03:41:00,
2013-04-23 17:55:00,69.3,69.3,30.08,North,350,0.0,0.0,100,0.00,,,0.20,32,Wunderground v.1.15,2013-04-24 03:55:00,
2013-04-23 18:00:00,69.2,69.2,30.07,North,350,1.0,2.0,100,0.00,,,0.20,39,Wunderground v.1.15,2013-04-24 04:00:00,
2013-04-23 18:04:00,69.3,69.3,30.07,North,350,2.0,2.0,100,0.00,,,0.20,26,Wunderground v.1.15,2013-04-24 04:04:00,
2013-04-23 18:10:00,69.4,69.4,30.08,North,350,1.0,1.0,100,0.00,,,0.20,21,Wunderground v.1.15,2013-04-24 04:10:00,
2013-04-23 18:15:00,69.3,69.3,30.08,North,350,0.0,1.0,100,0.00,,,0.20,14,Wunderground v.1.15,2013-04-24 04:15:00,
2013-04-23 18:19:00,69.3,69.3,30.08,North,350,0.0,2.0,100,0.00,,,0.20,12,Wunderground v.1.15,2013-04-24 04:19:00,
2013-04-23 18:24:00,69.1,69.1,30.08,North,350,2.0,5.0,100,0.00,,,0.20,9,Wunderground v.1.15,2013-04-24 04:24:00,
2013-04-23 18:29:00,68.9,68.9,30.08,NNW,345,4.0,5.0,100,0.00,,,0.20,5,Wunderground v.1.15,2013-04-24 04:29:00,
2013-04-23 18:34:00,68.7,68.7,30.08,NW,325,5.0,5.0,100,0.00,,,0.20,0,Wunderground v.1.15,2013-04-24 04:34:00,
2013-04-23 18:39:00,68.6,68.6,30.08,NNW,329,5.0,5.0,100,0.00,,,0.20,0,Wunderground v.1.15,2013-04-24 04:39:00,
2013-04-23 18:45:00,68.5,68.5,30.08,NNW,336,5.0,5.0,100,0.00,,,0.20,0,Wunderground v.1.15,2013-04-24 04:45:00,
2013-04-23 18:50:00,68.4,68.4,30.08,NNW,338,4.0,4.0,100,0.00,,,0.20,0,Wunderground v.1.15,2013-04-24 04:50:00,
2013-04-23 19:00:00,68.3,68.3,30.09,NNW,329,4.0,4.0,100,0.00,,,0.20,0,Wunderground v.1.15,2013-04-24 05:00:00,
2013-04-23 19:10:00,68.1,68.1,30.09,NNW,330,4.0,4.0,100,0.00,,,0.20,0,Wunderground v.1.15,2013-04-24 05:10:00,
2013-04-23 19:19:00,68.1,68.1,30.09,NNW,331,3.0,4.0,100,0.00,,,0.20,0,Wunderground v.1.15,2013-04-24 05:19:00,
2013-04-23 19:24:00,68.1,68.1,30.09,NNW,331,3.0,4.0,100,0.00,,,0.20,0,Wunderground v.1.15,2013-04-24 05:24:00,
2013-04-23 19:29:00,68.1,68.1,30.09,NNW,332,3.0,3.0,100,0.00,,,0.20,0,Wunderground v.1.15,2013-04-24 05:29:00,
2013-04-23 19:35:00,68.1,68.1,30.09,NNW,332,3.0,3.0,100,0.00,,,0.20,0,Wunderground v.1.15,2013-04-24 05:35:00,
2013-04-23 19:40:00,68.1,68.1,30.09,NNW,332,3.0,3.0,100,0.00,,,0.20,0,Wunderground v.1.15,2013-04-24 05:40:00,
2013-04-23 19:49:00,68.1,68.1,30.10,NNW,331,3.0,5.0,100,0.00,,,0.20,0,Wunderground v.1.15,2013-04-24 05:49:00,
2013-04-23 19:54:00,68.1,68.1,30.10,NNW,329,3.0,5.0,100,0.00,,,0.20,0,Wunderground v.1.15,2013-04-24 05:54:00,
2013-04-23 20:00:00,68.2,68.2,30.10,NNW,330,2.0,3.0,100,0.00,,,0.20,0,Wunderground v.1.15,2013-04-24 06:00:00,
2013-04-23 20:09:00,68.2,68.2,30.10,NNW,330,1.0,3.0,100,0.00,,,0.20,0,Wunderground v.1.15,2013-04-24 06:09:00,
2013-04-23 20:14:00,68.2,68.2,30.10,NNW,330,2.0,3.0,100,0.00,,,0.20,0,Wunderground v.1.15,2013-04-24 06:14:00,
2013-04-23 20:24:00,68.2,67.9,30.11,NNW,330,2.0,2.0,99,0.00,,,0.20,0,Wunderground v.1.15,2013-04-24 06:24:00,
2013-04-23 20:29:00,68.3,68.0,30.12,NNW,330,1.0,1.0,99,0.00,,,0.20,0,Wunderground v.1.15,2013-04-24 06:29:00,
2013-04-23 20:34:00,68.2,67.9,30.12,NNW,330,1.0,4.0,99,0.00,,,0.20,0,Wunderground v.1.15,2013-04-24 06:34:00,
2013-04-23 20:39:00,68.3,68.0,30.12,NNW,330,2.0,4.0,99,0.00,,,0.20,0,Wunderground v.1.15,2013-04-24 06:39:00,
2013-04-23 20:45:00,68.2,67.9,30.12,NNW,330,3.0,4.0,99,0.00,,,0.20,0,Wunderground v.1.15,2013-04-24 06:45:00,
2013-04-23 20:50:00,68.2,68.2,30.12,NNW,330,1.0,1.0,100,0.00,,,0.20,0,Wunderground v.1.15,2013-04-24 06:50:00,
2013-04-23 21:00:00,68.4,68.4,30.12,NNW,330,1.0,1.0,100,0.00,,,0.20,0,Wunderground v.1.15,2013-04-24 07:00:00,
2013-04-23 21:10:00,68.4,68.4,30.12,NNW,330,2.0,3.0,100,0.00,,,0.20,0,Wunderground v.1.15,2013-04-24 07:10:00,
2013-04-23 21:15:00,68.4,68.4,30.13,NNW,330,2.0,3.0,100,0.00,,,0.20,0,Wunderground v.1.15,2013-04-24 07:15:00,
2013-04-23 21:20:00,68.5,68.5,30.13,NNW,331,2.0,2.0,100,0.00,,,0.20,0,Wunderground v.1.15,2013-04-24 07:20:00,
2013-04-23 21:29:00,68.4,68.4,30.13,NNW,331,1.0,5.0,100,0.00,,,0.20,0,Wunderground v.1.15,2013-04-24 07:29:00,
2013-04-23 21:35:00,68.3,68.3,30.13,NNW,331,2.0,5.0,100,0.00,,,0.20,0,Wunderground v.1.15,2013-04-24 07:35:00,
2013-04-23 21:44:00,68.5,68.2,30.13,NNW,331,3.0,3.0,99,0.00,,,0.20,0,Wunderground v.1.15,2013-04-24 07:44:00,
2013-04-23 21:49:00,68.5,68.2,30.13,NNW,331,3.0,3.0,99,0.00,,,0.20,0,Wunderground v.1.15,2013-04-24 07:49:00,
2013-04-23 21:54:00,68.6,68.3,30.13,NNW,331,2.0,3.0,99,0.00,,,0.20,0,Wunderground v.1.15,2013-04-24 07:54:00,
2013-04-23 22:00:00,68.7,68.4,30.13,NNW,331,1.0,1.0,99,0.00,,,0.20,0,Wunderground v.1.15,2013-04-24 08:00:00,
2013-04-23 22:09:00,68.7,68.4,30.13,NNW,331,0.0,0.0,99,0.00,,,0.20,0,Wunderground v.1.15,2013-04-24 08:09:00,
2013-04-23 22:14:00,68.6,68.3,30.13,NNW,331,0.0,0.0,99,0.00,,,0.20,0,Wunderground v.1.15,2013-04-24 08:14:00,
2013-04-23 22:19:00,68.5,68.2,30.13,NNW,331,0.0,0.0,99,0.00,,,0.20,0,Wunderground v.1.15,2013-04-24 08:19:00,
2013-04-23 22:25:00,68.5,68.5,30.13,NNW,331,1.0,2.0,100,0.00,,,0.20,0,Wunderground v.1.15,2013-04-24 08:25:00,
2013-04-23 22:30:00,68.4,68.4,30.13,NNW,331,1.0,1.0,100,0.00,,,0.20,0,Wunderground v.1.15,2013-04-24 08:30:00,
2013-04-23 22:39:00,68.3,68.3,30.12,NNW,331,0.0,0.0,100,0.00,,,0.20,0,Wunderground v.1.15,2013-04-24 08:39:00,
2013-04-23 22:44:00,68.3,68.3,30.13,NNW,331,0.0,0.0,100,0.00,,,0.20,0,Wunderground v.1.15,2013-04-24 08:44:00,
2013-04-23 22:54:00,68.3,68.3,30.12,NNW,331,0.0,0.0,100,0.00,,,0.20,0,Wunderground v.1.15,2013-04-24 08:54:00,
2013-04-23 23:00:00,68.2,68.2,30.12,NNW,331,0.0,2.0,100,0.00,,,0.20,0,Wunderground v.1.15,2013-04-24 09:00:00,
2013-04-23 23:10:00,68.2,68.2,30.12,NNW,331,1.0,2.0,100,0.00,,,0.20,0,Wunderground v.1.15,2013-04-24 09:10:00,
2013-04-23 23:19:00,68.2,68.2,30.12,NNW,331,2.0,2.0,100,0.00,,,0.20,0,Wunderground v.1.15,2013-04-24 09:19:00,
2013-04-23 23:24:00,68.2,68.2,30.12,NNW,331,1.0,2.0,100,0.00,,,0.20,0,Wunderground v.1.15,2013-04-24 09:24:00,
2013-04-23 23:29:00,68.2,68.2,30.12,NNW,331,0.0,1.0,100,0.00,,,0.20,0,Wunderground v.1.15,2013-04-24 09:29:00,
2013-04-23 23:34:00,68.3,68.3,30.12,NNW,331,0.0,1.0,100,0.00,,,0.20,0,Wunderground v.1.15,2013-04-24 09:34:00,
2013-04-23 23:39:00,68.2,68.2,30.12,NNW,331,1.0,2.0,100,0.00,,,0.20,0,Wunderground v.1.15,2013-04-24 09:39:00,
2013-04-23 23:45:00,68.3,68.3,30.12,NNW,331,1.0,2.0,100,0.00,,,0.20,0,Wunderground v.1.15,2013-04-24 09:45:00,
2013-04-23 23:54:00,68.2,68.2,30.11,NNW,331,1.0,2.0,100,0.00,,,0.00,0,Wunderground v.1.15,2013-04-24 09:54:00,